Location: Casale Granaraccio
(41.9167°N, 12.7333°E)
Time: 02:16:25
(UTC+00:00)

Daily predictions for brighter satellites

Satellite Brightness Start Highest point End
(mag) Time Altitude Azimuth Time Altitude Azimuth Time Altitude Azimuth
ADEOS II 4.3 01:02:38 10° NNE 01:04:24 21° NE 01:04:24 21° NE
Cosmos 1980 Rocket 3.9 01:20:38 29° NE 01:20:38 29° NE 01:23:24 10° NNE
Cosmos 2263 Rocket 3.9 01:18:14 10° N 01:23:07 29° NE 01:28:00 10° ESE
Cosmos 2322 Rocket 4.4 01:26:32 17° ESE 01:27:07 17° E 01:30:37 10° ENE
SL-16 R/B 3.9 01:38:10 26° ESE 01:38:10 26° ESE 01:42:44 10° NE
Cosmos 1238 Rocket 4.4 01:45:27 10° N 01:51:13 58° NE 01:51:13 58° NE
Resurs 1-4 Rocket 4.4 01:50:55 10° N 01:51:58 15° NNW 01:51:58 15° NNW
CZ-2D R/B 4.3 01:54:09 10° N 01:55:14 15° NNW 01:55:14 15° NNW
BREEZE-M DEB (TANK) 4.3 01:58:35 53° SSE 01:58:36 53° SSE 02:03:05 10° ENE
Cosmos 1605 Rocket 4.4 02:03:47 10° N 02:10:08 61° E 02:14:29 21° SSE
Cosmos 1535 Rocket 4.5 02:05:55 10° N 02:12:00 81° N 02:12:00 81° N
Lacrosse 5 3.6 02:13:50 23° N 02:13:50 23° N 02:17:07 10° NNE
Meteor 2-6 Rocket 4.3 02:18:33 69° SE 02:18:57 71° E 02:24:47 10° NNE
H-2A R/B 3.8 02:16:16 10° SE 02:20:09 32° ENE 02:24:08 10° N
X-37B 3.8 02:27:32 12° ESE 02:27:32 12° ESE 02:27:47 10° ESE
Cosmos 1763 Rocket 3.9 02:24:23 55° SE 02:24:54 58° ESE 02:30:07 10° NNE
ARIANE 5 R/B 3.1 02:21:47 10° N 02:25:30 47° N 02:25:30 47° N
SL-4 R/B 2.9 02:27:59 54° ENE 02:27:59 54° ENE 02:31:42 10° ENE
USA 267 3.2 02:26:26 10° NE 02:32:58 73° NW 02:34:08 60° W
CZ-2C R/B 4.0 02:30:06 10° NNE 02:32:41 39° NE 02:32:41 39° NE
NOSS 3-3 (A) 4.0 02:34:42 57° WNW 02:34:55 57° NW 02:41:24 10° NNE
NOSS 3-3 (C) 4.0 02:34:50 57° WNW 02:35:01 57° NW 02:41:30 10° NNE
ADEOS Rocket 4.5 02:33:45 10° SE 02:39:46 38° ENE 02:45:15 10° N
DEBRIS 4.0 02:42:07 34° ESE 02:42:07 34° ESE 02:45:03 10° ESE
IRIDIUM 106 4.5 02:37:44 10° N 02:42:58 73° E 02:46:40 20° S
Cosmos 1727 Rocket 4.1 02:42:10 23° S 02:46:22 77° E 02:52:42 10° N
ADEOS II 3.8 02:43:00 10° NNW 02:45:20 20° NW 02:45:20 20° NW
Cosmos 1339 Rocket 4.4 02:47:26 56° WSW 02:48:17 61° W 02:54:26 10° N
Cosmos 990 Rocket 3.9 02:45:41 10° NNW 02:50:54 89° WSW 02:56:07 10° SSE
Cosmos 921 Rocket 4.5 02:52:55 25° NNW 02:52:55 25° NNW 02:55:06 10° N
IDEFIX/ARIANE 42P 2.7 02:46:09 10° N 02:51:13 54° WNW 02:51:13 54° WNW
ATLAS 2AS CENTAUR R/B 3.7 02:44:23 10° NNW 02:51:39 49° NE 02:58:20 10° ESE
Cosmos 2360 Rocket 3.1 02:47:37 17° S 02:51:39 46° ESE 02:57:02 10° NE
PAYLOAD A 4.4 02:47:42 10° NNE 02:52:19 55° E 02:55:21 21° S
BREEZE-M DEB (TANK) 4.4 02:51:06 42° WSW 02:54:17 88° NNW 03:23:02 10° ENE
Cosmos 468 Rocket 4.0 02:57:16 58° WSW 02:57:59 64° WNW 03:03:13 10° NNE
Celestis-02/Orion 38 4.4 02:54:25 10° SSE 02:59:42 79° WSW 03:04:52 10° NNW
Cosmos 1980 Rocket 3.6 03:02:25 22° NW 03:02:25 22° NW 03:06:34 10° N
Cosmos 44 Rocket 3.3 03:03:34 41° SSW 03:05:08 73° ESE 03:09:58 10° NE
USA 234 3.4 03:00:18 10° ESE 03:06:47 73° NE 03:13:19 10° NW
Cosmos 2263 Rocket 2.4 03:01:51 10° NW 03:07:12 44° WSW 03:12:32 10° S
Meteor 1-11 Rocket 3.6 03:02:32 10° NNW 03:08:18 82° W 03:13:54 10° S
Cosmos 2322 Rocket 2.1 03:08:23 39° SW 03:10:30 68° WNW 03:16:12 10° NNE
Cosmos 1844 Rocket 3.9 03:06:32 10° NNW 03:11:56 44° ENE 03:17:19 10° SE
Meteor 1-4 Rocket 4.0 03:13:45 24° NNW 03:13:45 24° NNW 03:15:32 10° N
Meteor 1-27 Rocket 3.7 03:10:08 16° SSW 03:14:55 79° W 03:20:52 10° N
Cosmos 1707 Rocket 3.4 03:14:39 44° SW 03:15:50 65° W 03:20:10 10° N
Cosmos 1666 2.6 03:14:18 10° NNW 03:18:03 57° W 03:18:11 57° WSW
Cosmos 1812 4.4 03:21:36 20° NW 03:21:36 20° NW 03:23:19 10° NNW
SL-16 R/B 2.5 03:20:04 34° WSW 03:21:56 46° WNW 03:27:23 10° NNE
Cosmos 1437 Rocket 4.0 03:20:41 10° SSE 03:24:15 41° E 03:27:53 10° NNE
CZ-3B R/B 4.3 03:21:32 12° NW 03:24:47 26° NNE 03:34:35 10° ENE
USA 276 3.9 03:25:21 19° NNW 03:26:53 29° NNE 03:29:45 10° E
Cosmos 2237 4.1 03:24:47 18° SSW 03:29:07 81° WNW 03:34:52 10° NNE
Cosmos 372 Rocket 4.4 03:24:12 10° NNW 03:29:19 63° ENE 03:34:21 10° SSE
Cosmos 1536 2.8 03:26:23 10° NNW 03:30:24 61° W 03:34:24 10° S
ATLAS CENTAUR R/B 4.2 03:24:35 10° NW 03:32:50 33° NNE 03:36:34 10° E
Cosmos 1733 Rocket 2.9 03:28:31 10° N 03:32:52 82° W 03:37:11 10° S
Cosmos 2173 Rocket 4.0 03:26:36 10° N 03:32:58 84° W 03:39:21 10° S
CZ-2C R/B 2.5 03:29:19 10° N 03:34:26 66° WNW 03:39:34 10° SSW
Cosmos 1898 Rocket 3.9 03:30:45 10° NW 03:35:37 39° WSW 03:40:29 10° S
ALOS 3.0 03:35:02 10° NNE 03:39:38 56° E 03:44:12 10° S
Cosmos 2219 Rocket 3.5 03:35:01 10° S 03:40:16 41° ESE 03:45:34 10° NE
CZ-4C R/B 4.2 03:35:09 10° NNW 03:41:54 42° NE 03:49:35 10° ESE
SL-19 R/B 4.4 03:38:14 10° NNE 03:42:45 88° E 03:46:37 10° SSW
Landsat 5 4.4 03:41:31 10° SSW 03:45:30 31° W 03:49:28 10° NW
PSLV R/B 4.0 03:44:14 10° N 03:48:08 38° WNW 03:51:00 16° SW
Meteor 2-20 4.4 03:42:01 10° S 03:48:09 80° W 03:54:17 10° N
Cosmos 1862 Rocket 3.6 03:46:13 10° SSW 03:50:31 56° W 03:54:49 10° N
H-2A R/B 3.1 03:52:32 10° SSW 03:56:07 24° W 03:59:48 10° NW
Cosmos 1937 Rocket 4.0 03:52:02 10° NW 03:56:39 34° W 04:01:14 10° SSW
Lacrosse 5 4.1 03:54:52 10° NW 03:57:36 14° N 04:00:21 10° NNE
COSMOS 2428 3.7 03:53:06 10° S 03:58:35 51° ESE 04:04:07 10° NE
Cosmos 2208 Rocket 4.2 03:54:04 10° SW 03:59:09 50° WNW 04:04:13 10° N
Cosmos 841 Rocket 4.0 03:56:29 13° SW 04:00:49 39° WNW 04:05:46 10° N
X-37B 1.8 03:59:50 20° WSW 04:01:02 25° SSW 04:03:43 10° SSE
ERS-2 2.9 03:58:02 10° SSW 04:01:17 30° W 04:04:34 10° NW
Cosmos 2016 Rocket 3.9 03:58:22 10° NNW 04:04:27 71° W 04:10:30 10° S
Cosmos 1814 Rocket 4.3 04:00:01 10° SW 04:05:00 45° WNW 04:10:05 10° N
Cosmos 1743 2.7 04:02:09 10° NNW 04:05:54 57° W 04:09:38 10° S
Cosmos 2061 Rocket 4.0 04:00:14 10° NNW 04:06:39 71° W 04:13:01 10° S
SL-4 R/B 3.5 04:03:35 13° WNW 04:07:07 33° NNW 04:11:27 10° NE
Cosmos 2333 Rocket 2.5 04:02:02 10° SSW 04:07:47 77° ESE 04:13:33 10° NNE
Cosmos 1125 Rocket 4.3 04:03:07 10° NNW 04:08:21 58° ENE 04:13:30 10° SSE
Cosmos 2322 3.7 04:07:57 10° SSW 04:13:36 75° WNW 04:19:17 10° NNE
Cosmos 2150 Rocket 4.1 04:08:09 10° NNW 04:13:39 86° WSW 04:19:01 10° SSE
Cosmos 2233 Rocket 4.3 04:08:33 10° N 04:14:43 74° E 04:20:50 10° SSE
USA 267 4.3 04:09:45 10° NE 04:15:19 31° NNW 04:20:54 10° WNW
METEOR-M 4.1 04:10:13 10° NNE 04:15:35 81° WNW 04:20:56 10° SSW
Cosmos 1544 3.0 04:12:38 10° NNW 04:16:12 63° W 04:19:43 10° S
Meteor PRIRODA 4.3 04:12:59 10° NNE 04:16:35 57° E 04:20:10 10° S
NOSS 3-4 (A) 4.2 04:12:00 10° NW 04:18:51 48° WSW 04:26:19 10° S
NOSS 3-4 (C) 4.2 04:12:06 10° NW 04:18:57 48° WSW 04:26:26 10° S
CZ-4B R/B 2.2 04:18:21 10° SSW 04:21:07 27° W 04:23:57 10° NW
ADEOS Rocket 3.6 04:19:07 10° SSW 04:25:14 36° W 04:30:51 10° NNW
ADEOS 4.0 04:20:48 10° N 04:25:42 42° WNW 04:30:35 10° SW
Cosmos 1725 Rocket 4.0 04:20:18 10° NNW 04:26:20 58° W 04:32:21 10° S
COSMO-SKYMED 1 2.6 04:23:39 10° SSE 04:27:59 87° WSW 04:32:22 10° NNW
ARGOS Delta rocket 4.5 04:24:12 10° NNE 04:28:44 60° E 04:33:27 10° S
Cosmos 1975 2.7 04:25:07 10° NNW 04:29:08 75° W 04:33:06 10° S
Cosmos 2333 4.4 04:26:08 10° SW 04:31:47 54° WNW 04:37:27 10° NNE
Meteor 1-18 Rocket 4.3 04:26:41 10° SSW 04:32:08 59° WNW 04:37:40 10° N
Meteor 1-19 Rocket 4.2 04:27:35 10° SSW 04:32:59 63° WNW 04:38:36 10° N
Cosmos 2360 Rocket 3.2 04:31:01 10° WSW 04:35:50 28° NW 04:40:40 10° N
FENGYUN 3A 4.0 04:31:50 10° N 04:36:56 44° WNW 04:42:01 10° SW
